Wetterstats.de || Aktuelle Messwerte / Archiv || Klim. Kenntage || Met. Ereignisse || Agrarwerte || Echtzeitwerte BETA

Monatsübersicht für März 2020 Diagramm
 
Wetter Information zur Wetteranzeige
Zeitraffer
Tageslänge (hh:mm)
Höchsttemperatur in °C
Uhrzeit
Tiefsttemperatur in °C
Uhrzeit
Luftfeuchte (max., in %)
Uhrzeit
Luftfeuchte (min., in %)
Uhrzeit
Luftdruck (max., in hPa)
Uhrzeit
Luftdruck (min., in hPa)
Uhrzeit
Luftdruck (Ø, in hPa)
Regenrate (max, mm/h)
Uhrzeit
Niederschlag in mm
Verdunstung in mm
Solar in W/m² (Ø)
Solar in W/m² (max.)
UV-Index (max.)
Sonnenscheindauer (hh:mm)
Windrichtung (Ø)
Windstärke (Ø in km/h)
Windstärke (Ø in bft)
Windböe (max., in km/h)
Uhrzeit
Windböe (max., in bft)
Uhrzeit
Taupunkt (max., in °C)
Uhrzeit
Taupunkt (min., in °C)
Uhrzeit
Windchill (min., in °C)
Uhrzeit
Gewitterindex (max.)
Uhrzeit
Waldbrandindex (max.)
Uhrzeit
Graslandfeuerindex (max.)
Uhrzeit
Staubsturm-Index (max.)
Uhrzeit
01
Zeitraffer
10:58
10.4
12:50 Uhr
4.0
22:05 Uhr

89
15:35 Uhr
56
12:50 Uhr
996.9
08:00 Uhr

994.3
00:00 Uhr
996.0
2,400
13:55 Uhr
1,000
1.499
183
587
10:50 Uhr
1.5
10:45 Uhr

05:21:00
8,3
2
43,5
13:30 Uhr

6
6.1
16:20 Uhr
1.2
05:50 Uhr
-0.3
08:30 Uhr
0
00:00 Uhr
0.0
00:00 Uhr
0.0
00:00 Uhr
0.0
00:00 Uhr
02
Zeitraffer
11:02
9.9
15:15 Uhr
1.8
23:30 Uhr

96
06:15 Uhr
63
15:10 Uhr
995.7
20:10 Uhr

991.7
06:45 Uhr
994.0
4,800
03:55 Uhr
2,200
0.787
148
545
14:05 Uhr
1.7
11:10 Uhr

02:16:00
3,7
1
29,0
11:00 Uhr

4
5.2
10:20 Uhr
0.6
23:35 Uhr
-2.8
11:00 Uhr
0
00:00 Uhr
0.0
00:00 Uhr
0.0
00:00 Uhr
0.0
00:00 Uhr
03
Zeitraffer
11:06
7.1
15:20 Uhr
2.1
00:00 Uhr

95
01:25 Uhr
82
13:30 Uhr
1005.2
23:30 Uhr

995.0
02:45 Uhr
998.7
0,000
00:00 Uhr
0,000
0.584
85
237
12:30 Uhr
1.0
12:20 Uhr

00:00:00
4,9
1
32,2
19:30 Uhr

5
4.5
16:15 Uhr
1.2
00:00 Uhr
-3.2
19:25 Uhr
0
00:00 Uhr
0.0
00:00 Uhr
0.0
00:00 Uhr
0.0
00:00 Uhr
04
Zeitraffer
11:09
7.9
15:35 Uhr
0.2
23:55 Uhr

94
07:25 Uhr
70
15:35 Uhr
1010.2
09:40 Uhr

1005.2
00:00 Uhr
1009.0
2,400
16:15 Uhr
0,200
1.092
208
605
11:55 Uhr
1.7
11:45 Uhr

05:19:00
4,2
1
25,7
11:35 Uhr

4
3.6
15:05 Uhr
-0.7
23:25 Uhr
-2.0
09:50 Uhr
0
00:00 Uhr
0.0
00:00 Uhr
0.0
00:00 Uhr
0.0
00:00 Uhr
05
Zeitraffer
11:14
10.4
15:20 Uhr
-0.2
00:15 Uhr

95
00:55 Uhr
53
15:25 Uhr
1009.3
00:00 Uhr

995.6
23:55 Uhr
1003.7
0,000
00:00 Uhr
0,000
1.702
270
640
12:30 Uhr
2.2
12:30 Uhr

05:33:00
4,5
1
25,7
15:25 Uhr

4
3.6
12:45 Uhr
-1.1
00:45 Uhr
-0.2
00:15 Uhr
0
00:00 Uhr
0.0
00:00 Uhr
0.3
14:45 Uhr
0.0
00:00 Uhr
06
Zeitraffer
11:18
5.7
12:20 Uhr
3.1
07:30 Uhr

96
22:05 Uhr
75
01:10 Uhr
998.4
23:55 Uhr

992.4
06:05 Uhr
994.1
2,400
06:40 Uhr
4,400
0.432
48
111
10:15 Uhr
0.6
10:15 Uhr

00:00:00
5,2
1
24,1
12:55 Uhr

4
4.9
22:05 Uhr
0.2
01:10 Uhr
-1.3
05:00 Uhr
0
00:00 Uhr
0.0
00:00 Uhr
0.3
00:00 Uhr
0.0
00:00 Uhr
07
Zeitraffer
11:22
5.6
16:40 Uhr
0.2
23:55 Uhr

96
00:05 Uhr
83
16:10 Uhr
1019.2
23:50 Uhr

998.5
00:00 Uhr
1010.2
2,400
05:40 Uhr
0,600
0.229
32
110
11:50 Uhr
0.5
11:40 Uhr

00:00:00
7,5
2
32,2
15:25 Uhr

5
4.6
00:05 Uhr
-0.9
23:55 Uhr
-4.7
10:40 Uhr
0
00:00 Uhr
0.0
00:00 Uhr
0.0
00:00 Uhr
0.0
00:00 Uhr
08
Kein Zeitraffer vorhanden
11:27
9.7
15:20 Uhr
-2.5
06:00 Uhr

96
07:50 Uhr
70
15:20 Uhr
1019.5
01:05 Uhr

1010.7
23:35 Uhr
1015.7
0,000
00:00 Uhr
0,000
1.220
177
572
14:45 Uhr
1.5
14:45 Uhr

02:45:00
5,3
1
35,4
15:35 Uhr

5
4.7
17:10 Uhr
-3.3
05:40 Uhr
-2.5
06:00 Uhr
0
00:00 Uhr
0.0
00:00 Uhr
0.0
00:00 Uhr
0.0
00:00 Uhr
09
Zeitraffer
11:31
10.7
15:50 Uhr
2.3
23:05 Uhr

95
11:45 Uhr
72
17:25 Uhr
1013.2
22:45 Uhr

1008.9
05:40 Uhr
1010.7
2,400
09:00 Uhr
1,000
0.635
99
494
14:50 Uhr
1.3
14:45 Uhr

01:09:00
2,7
1
19,3
16:55 Uhr

3
7.6
14:30 Uhr
1.1
23:00 Uhr
2.3
23:05 Uhr
0
00:00 Uhr
0.0
00:00 Uhr
0.0
00:00 Uhr
0.0
00:00 Uhr
10
Zeitraffer
11:34
10.1
23:55 Uhr
1.3
02:25 Uhr

95
03:10 Uhr
78
10:00 Uhr
1013.0
00:00 Uhr

997.5
23:30 Uhr
1005.3
2,400
11:20 Uhr
5,400
0.584
89
323
09:45 Uhr
1.1
12:40 Uhr

00:57:00
9,4
2
38,6
10:05 Uhr

5
9.2
23:55 Uhr
0.0
02:25 Uhr
-1.7
07:35 Uhr
2
23:40 Uhr
0.0
00:00 Uhr
0.0
00:00 Uhr
0.0
00:00 Uhr
11
Zeitraffer
11:39
12.9
15:05 Uhr
7.7
07:00 Uhr

95
00:20 Uhr
51
15:05 Uhr
1010.6
19:10 Uhr

997.5
00:00 Uhr
1006.4
7,200
00:25 Uhr
3,200
2.565
329
776
12:45 Uhr
2.7
12:35 Uhr

07:54:00
11,2
2
46,7
10:50 Uhr

6
9.6
00:25 Uhr
2.5
15:50 Uhr
0.6
06:05 Uhr
2
00:00 Uhr
0.0
00:00 Uhr
0.0
00:00 Uhr
0.0
00:00 Uhr
12
Zeitraffer
11:43
13.0
08:20 Uhr
6.0
22:40 Uhr

94
03:10 Uhr
36
15:25 Uhr
1008.3
18:45 Uhr

999.4
08:05 Uhr
1004.5
21,600
08:30 Uhr
7,800
2.388
184
682
13:35 Uhr
2.5
13:05 Uhr

03:32:00
14,5
3
66,0
10:55 Uhr

8
10.4
05:20 Uhr
-4.2
15:30 Uhr
-0.9
16:20 Uhr
2
02:50 Uhr
0.0
00:00 Uhr
0.0
00:00 Uhr
0.0
00:00 Uhr
13
Zeitraffer
11:47
9.1
15:40 Uhr
3.1
03:40 Uhr

82
03:35 Uhr
56
00:00 Uhr
1018.3
23:55 Uhr

1006.8
11:40 Uhr
1009.8
2,400
12:20 Uhr
0,400
1.803
141
701
14:05 Uhr
2.0
14:00 Uhr

02:46:00
13,8
3
57,9
12:45 Uhr

7
4.4
14:20 Uhr
-1.5
00:00 Uhr
-5.1
20:20 Uhr
0
00:00 Uhr
0.0
00:00 Uhr
0.0
00:00 Uhr
0.0
00:00 Uhr
14
Zeitraffer
11:51
9.2
15:55 Uhr
-2.7
23:50 Uhr

92
07:00 Uhr
31
13:55 Uhr
1026.2
20:40 Uhr

1018.3
00:00 Uhr
1024.1
0,000
00:00 Uhr
0,000
2.210
376
656
12:05 Uhr
2.3
11:50 Uhr

10:09:00
3,2
1
25,7
00:10 Uhr

4
-0.2
00:00 Uhr
-9.1
13:55 Uhr
-3.4
00:50 Uhr
0
00:00 Uhr
0.0
00:00 Uhr
0.0
00:00 Uhr
0.0
00:00 Uhr
15
Zeitraffer
11:55
11.7
14:20 Uhr
-3.3
01:50 Uhr

89
01:55 Uhr
26
15:00 Uhr
1025.6
00:00 Uhr

1016.4
21:25 Uhr
1020.7
0,000
00:00 Uhr
0,000
3.150
312
637
11:25 Uhr
2.3
11:35 Uhr

10:09:00
11,4
2
48,3
12:20 Uhr

6
-1.2
12:15 Uhr
-7.6
17:25 Uhr
-9.2
07:05 Uhr
0
00:00 Uhr
0.0
00:00 Uhr
0.1
15:05 Uhr
0.0
00:00 Uhr


 
Wetter Information zur Wetteranzeige
Zeitraffer
Tageslänge (hh:mm)
Höchsttemperatur in °C
Uhrzeit
Tiefsttemperatur in °C
Uhrzeit
Luftfeuchte (max., in %)
Uhrzeit
Luftfeuchte (min., in %)
Uhrzeit
Luftdruck (max., in hPa)
Uhrzeit
Luftdruck (min., in hPa)
Uhrzeit
Luftdruck (Ø, in hPa)
Regenrate (max, mm/h)
Uhrzeit
Niederschlag in mm
Verdunstung in mm
Solar in W/m² (Ø)
Solar in W/m² (max.)
UV-Index (max.)
Sonnenscheindauer (hh:mm)
Windrichtung (Ø)
Windstärke (Ø in km/h)
Windstärke (Ø in bft)
Windböe (max., in km/h)
Uhrzeit
Windböe (max., in bft)
Uhrzeit
Taupunkt (max., in °C)
Uhrzeit
Taupunkt (min., in °C)
Uhrzeit
Windchill (min., in °C)
Uhrzeit
Gewitterindex (max.)
Uhrzeit
Waldbrandindex (max.)
Uhrzeit
Graslandfeuerindex (max.)
Uhrzeit
Staubsturm-Index (max.)
Uhrzeit
16
Zeitraffer
11:59
16.7
15:55 Uhr
3.1
07:10 Uhr

85
23:50 Uhr
41
12:05 Uhr
1024.3
23:10 Uhr

1016.2
04:00 Uhr
1019.1
0,000
00:00 Uhr
0,000
2.642
343
716
12:45 Uhr
2.7
12:10 Uhr

09:31:00
4,8
1
35,4
14:35 Uhr

5
5.6
17:45 Uhr
-4.6
05:00 Uhr
2.6
08:45 Uhr
0
00:00 Uhr
0.3
12:35 Uhr
1.1
13:00 Uhr
0.0
00:00 Uhr
17
Zeitraffer
12:04
15.0
15:45 Uhr
0.3
06:20 Uhr

94
07:30 Uhr
40
16:15 Uhr
1028.4
20:50 Uhr

1024.3
00:00 Uhr
1026.8
0,000
00:00 Uhr
0,000
2.057
251
712
12:55 Uhr
2.6
12:55 Uhr

05:29:00
3,7
1
29,0
14:15 Uhr

4
7.7
13:15 Uhr
-0.9
06:15 Uhr
0.3
06:20 Uhr
0
00:00 Uhr
0.4
16:05 Uhr
1.3
15:50 Uhr
0.0
00:00 Uhr
18
Zeitraffer
12:08
16.8
15:00 Uhr
2.8
05:50 Uhr

89
05:55 Uhr
29
12:25 Uhr
1028.0
00:00 Uhr

1023.2
23:35 Uhr
1025.1
0,000
00:00 Uhr
0,000
3.175
334
700
11:35 Uhr
2.9
11:30 Uhr

09:59:00
5,9
1
35,4
12:15 Uhr

5
6.3
18:55 Uhr
-3.1
11:05 Uhr
2.8
05:50 Uhr
0
00:00 Uhr
0.8
12:35 Uhr
1.7
12:55 Uhr
0.0
00:00 Uhr
19
Zeitraffer
12:11
12.7
09:40 Uhr
6.4
23:55 Uhr

89
23:35 Uhr
66
00:00 Uhr
1026.5
19:25 Uhr

1022.9
03:20 Uhr
1024.8
0,000
00:00 Uhr
0,000
1.016
124
345
14:10 Uhr
2.1
14:10 Uhr

00:17:00
3,9
1
25,7
10:10 Uhr

4
8.2
09:40 Uhr
4.8
23:30 Uhr
3.5
16:35 Uhr
0
00:00 Uhr
0.0
00:00 Uhr
1.0
00:00 Uhr
0.0
00:00 Uhr
20
Zeitraffer
12:16
11.1
14:20 Uhr
4.9
23:05 Uhr

92
03:05 Uhr
47
14:45 Uhr
1028.1
23:40 Uhr

1025.2
14:50 Uhr
1026.2
0,000
00:00 Uhr
0,000
1.219
150
463
13:30 Uhr
2.0
13:40 Uhr

01:13:00
4,9
1
27,4
19:25 Uhr

4
4.9
00:00 Uhr
-0.2
14:45 Uhr
0.3
19:30 Uhr
0
00:00 Uhr
0.3
14:50 Uhr
1.3
15:05 Uhr
0.0
00:00 Uhr
21
Zeitraffer
12:20
6.9
14:45 Uhr
-0.1
23:20 Uhr

88
02:05 Uhr
38
15:00 Uhr
1034.8
23:50 Uhr

1028.0
00:30 Uhr
1031.4
0,000
00:00 Uhr
0,000
2.540
282
798
11:25 Uhr
3.0
12:25 Uhr

07:07:00
11,4
2
43,5
09:15 Uhr

6
2.3
00:10 Uhr
-7.6
18:35 Uhr
-6.6
08:30 Uhr
0
00:00 Uhr
0.8
16:00 Uhr
1.8
15:35 Uhr
0.0
00:00 Uhr
22
Zeitraffer
12:24
5.8
16:10 Uhr
-4.8
06:15 Uhr

90
06:45 Uhr
30
14:05 Uhr
1040.7
23:50 Uhr

1034.8
00:00 Uhr
1037.2
0,000
00:00 Uhr
0,000
2.718
408
792
12:20 Uhr
2.9
11:55 Uhr

10:33:00
6,2
1
33,8
14:10 Uhr

5
-3.5
08:35 Uhr
-11.1
17:15 Uhr
-7.6
08:40 Uhr
0
00:00 Uhr
1.0
14:05 Uhr
2.2
15:05 Uhr
0.0
00:00 Uhr
23
Zeitraffer
12:28
7.3
16:45 Uhr
-7.9
06:25 Uhr

83
06:40 Uhr
28
15:00 Uhr
1042.2
08:55 Uhr

1038.0
17:00 Uhr
1040.1
0,000
00:00 Uhr
0,000
2.540
402
694
12:10 Uhr
2.7
11:50 Uhr

10:38:00
3,8
1
29,0
14:40 Uhr

4
-6.6
07:55 Uhr
-11.8
10:50 Uhr
-7.9
06:25 Uhr
0
00:00 Uhr
2.3
16:40 Uhr
4.7
15:05 Uhr
1.4
14:40 Uhr
24
Zeitraffer
12:32
8.7
15:15 Uhr
-7.2
05:55 Uhr

87
06:30 Uhr
25
15:20 Uhr
1040.1
08:25 Uhr

1035.8
17:50 Uhr
1037.9
0,000
00:00 Uhr
0,000
2.769
404
715
12:30 Uhr
2.9
12:20 Uhr

10:54:00
4,5
1
29,0
13:40 Uhr

4
-6.5
07:55 Uhr
-11.7
10:00 Uhr
-7.2
05:55 Uhr
0
00:00 Uhr
2.5
15:25 Uhr
5.1
16:05 Uhr
2.2
14:00 Uhr
25
Zeitraffer
12:36
10.4
16:15 Uhr
-5.5
03:25 Uhr

80
06:05 Uhr
22
15:35 Uhr
1036.0
02:25 Uhr

1030.5
17:35 Uhr
1033.5
0,000
00:00 Uhr
0,000
3.302
403
710
12:05 Uhr
3.0
11:55 Uhr

10:38:00
6,4
1
38,6
09:45 Uhr

5
-7.6
01:15 Uhr
-10.9
15:35 Uhr
-5.7
09:45 Uhr
0
00:00 Uhr
3.0
15:55 Uhr
5.7
17:05 Uhr
0.0
00:00 Uhr
26
Zeitraffer
12:41
11.3
16:10 Uhr
-2.1
04:45 Uhr

63
05:55 Uhr
27
13:55 Uhr
1030.7
08:25 Uhr

1026.3
23:35 Uhr
1028.8
0,000
00:00 Uhr
0,000
3.302
385
714
12:19 Uhr
2.7
12:19 Uhr

09:46:00
6,3
1
32,2
13:10 Uhr

5
-3.7
23:40 Uhr
-8.7
00:20 Uhr
-3.4
08:35 Uhr
0
00:00 Uhr
3.4
14:05 Uhr
5.9
13:00 Uhr
0.0
00:00 Uhr
27
Zeitraffer
12:44
15.9
15:15 Uhr
2.7
06:30 Uhr

79
23:50 Uhr
33
15:00 Uhr
1026.3
00:00 Uhr

1021.4
17:10 Uhr
1023.7
0,000
00:00 Uhr
0,000
3.328
384
696
12:35 Uhr
2.8
12:35 Uhr

09:59:00
5,7
1
20,9
13:50 Uhr

4
1.0
17:55 Uhr
-4.0
03:00 Uhr
2.7
06:30 Uhr
0
00:00 Uhr
3.8
16:00 Uhr
5.9
10:10 Uhr
0.0
00:00 Uhr
28
Zeitraffer
12:49
15.3
14:20 Uhr
-1.4
06:15 Uhr

94
06:50 Uhr
32
15:00 Uhr
1021.8
00:05 Uhr

1016.8
16:20 Uhr
1019.1
0,000
00:00 Uhr
0,000
3.175
360
652
12:00 Uhr
2.5
11:35 Uhr

10:15:00
5,2
1
30,6
13:10 Uhr

5
2.8
09:35 Uhr
-3.9
17:40 Uhr
-1.4
06:15 Uhr
0
00:00 Uhr
3.9
16:05 Uhr
5.9
10:55 Uhr
0.0
00:00 Uhr
29
Zeitraffer
12:53
5.6
09:35 Uhr
-2.7
23:55 Uhr

85
12:05 Uhr
44
21:10 Uhr
1030.0
23:30 Uhr

1017.0
04:15 Uhr
1022.6
0,000
00:00 Uhr
0,000
1.448
147
763
14:45 Uhr
2.4
15:05 Uhr

01:38:00
12,4
2
51,5
13:00 Uhr

6
2.4
09:45 Uhr
-9.8
21:10 Uhr
-9.5
14:10 Uhr
0
00:00 Uhr
3.3
21:20 Uhr
5.9
16:05 Uhr
0.0
00:00 Uhr
30
Zeitraffer
12:57
3.6
13:05 Uhr
-4.8
06:45 Uhr

93
23:10 Uhr
47
10:20 Uhr
1030.0
00:20 Uhr

1024.3
17:50 Uhr
1026.8
2,400
16:00 Uhr
0,200
1.118
176
584
10:10 Uhr
2.3
13:00 Uhr

02:54:00
5,6
1
37,0
10:30 Uhr

5
0.0
19:15 Uhr
-8.5
02:05 Uhr
-7.4
15:25 Uhr
0
00:00 Uhr
3.2
10:55 Uhr
5.9
10:05 Uhr
0.0
00:00 Uhr
31
Zeitraffer
13:01
5.7
17:30 Uhr
-4.2
07:10 Uhr

93
00:00 Uhr
40
17:35 Uhr
1031.7
10:55 Uhr

1026.7
23:45 Uhr
1029.4
0,000
00:00 Uhr
0,000
1.829
288
861
11:35 Uhr
4.0
13:20 Uhr

06:22:00
4,5
1
27,4
13:25 Uhr

4
-1.1
00:00 Uhr
-7.1
17:35 Uhr
-5.2
00:45 Uhr
0
00:00 Uhr
3.7
17:50 Uhr
5.9
10:05 Uhr
0.0
00:00 Uhr
Stationsstandorte || Wetterblog || Wissenswertes || Downloads || Seiten-Historie || Partner || Impressum / Datenschutz